STARLINK-36993

Last updated on Mon Mar 30 2026 00:02:05 GMT+0000 (Coordinated Universal Time)

1 67994U 26039J 26088.16668981 -.02169527 00000+0 -79744-1 0 9999 2 67994 42.9993 298.9405 0001744 280.0197 24.4972 15.30750938 6008
UTC large
Height (km)
Speed (km/s)
/
Latitude / Longitude
Inclination (degrees)
Orbital Period (minutes)
Azimuth
Elevation
Range (km)
Doppler Factor

Next 0 passes for location: London (51.5072 / 0.1276)

Sorry there are no passes over London.